GW4807 Weather Reports


time (UTC)temp
C
wind
direction
speed
KPH
gust
KPH
rain 1hr
cm
rain 24hr
cm
rain mn
cm
humidity
%
barometer
mb
20260505153226 14 59 3.2 4.8 0.00 0.00 0.00 84 1001.3
20260505152723 14 85 6.4 8.0 0.00 0.00 0.00 84 1001.7
20260505152220 14 106 3.2 4.8 0.00 0.00 0.00 84 1001.7
20260505151714 14 113 1.6 3.2 0.00 0.00 0.00 85 1002.1
20260505151212 14 104 1.6 1.6 0.00 0.00 0.00 84 1001.9
20260505150708 15 117 1.6 1.6 0.00 0.00 0.00 84 1001.9
20260505150206 14 121 1.6 1.6 0.00 0.00 0.00 85 1002.3
20260505140639 14 88 4.8 4.8 0.00 0.00 0.00 84 1001.9
20260505140136 15 56 3.2 3.2 0.00 0.00 0.00 83 1002.0
20260505124549 13 98 4.8 4.8 0.00 0.00 0.00 91 1001.2
20260505124045 13 88 3.2 4.8 0.00 0.00 0.00 91 1001.4
20260505123542 13 105 0.0 1.6 0.00 0.00 0.00 91 1001.3
20260505123038 13 91 1.6 4.8 0.00 0.00 0.00 91 1001.1
20260505122535 13 115 1.6 1.6 0.00 0.00 0.00 91 1000.8
20260505122032 13 127 1.6 1.6 0.00 0.00 0.00 91 1000.9
20260505121528 13 96 0.0 1.6 0.00 0.00 0.00 90 1000.7
20260505121025 13 135 3.2 4.8 0.00 0.00 0.00 90 1000.5
20260505120521 13 121 3.2 4.8 0.00 0.00 0.00 90 1000.6
20260505120017 13 148 3.2 4.8 0.00 0.00 0.00 89 1000.6
20260505115512 13 54 4.8 9.7 0.00 0.00 0.00 87 1000.6
20260505115010 14 73 4.8 4.8 0.00 0.00 0.00 88 1000.9
20260505114507 14 133 1.6 1.6 0.00 0.00 0.00 88 1000.7
20260505114003 14 211 3.2 3.2 0.00 0.00 0.00 87 1000.3
20260505113500 15 110 0.0 0.0 0.00 0.00 0.00 86 1000.6
20260505112955 15 135 6.4 9.7 0.00 0.00 0.00 85 1000.8
20260505112453 16 110 3.2 3.2 0.00 0.00 0.00 87 1000.4
20260505111950 16 123 1.6 1.6 0.00 0.00 0.00 89 1000.7
20260505111449 16 135 0.0 1.6 0.00 0.00 0.00 88 1000.0
20260505110946 16 120 0.0 0.0 0.00 0.00 0.00 88 999.9
20260505110443 16 137 0.0 0.0 0.00 0.00 0.00 88 1000.5
20260505101915 17 125 0.0 0.0 0.00 0.00 0.00 83 999.5
20260505101415 17 146 1.6 1.6 0.00 0.00 0.00 82 998.8
20260505100911 17 176 4.8 8.0 0.00 0.00 0.00 83 999.1
20260505100408 16 257 6.4 8.0 0.00 0.00 0.00 83 998.9
20260505095903 16 330 1.6 3.2 0.00 0.00 0.00 85 998.7
20260505095400 16 167 1.6 1.6 0.00 0.00 0.00 87 998.2
20260505094856 16 126 3.2 3.2 0.00 0.00 0.00 87 998.1
20260505094354 16 257 3.2 3.2 0.00 0.00 0.00 86 998.0
20260505093849 17 1 8.0 9.7 0.00 0.00 0.00 84 996.9
20260505093347 17 55 3.2 3.2 0.00 0.00 0.00 83 997.6
20260505092844 17 341 3.2 3.2 0.00 0.00 0.00 82 998.4
20260505092342 17 129 1.6 3.2 0.00 0.00 0.00 83 998.6
20260505091839 17 352 3.2 4.8 0.00 0.00 0.00 82 998.9
20260505091337 16 250 6.4 8.0 0.00 0.00 0.00 83 999.0
20260505090835 16 126 1.6 1.6 0.00 0.00 0.00 84 999.2
20260505090333 16 119 1.6 1.6 0.00 0.00 0.00 85 999.2
20260505085829 16 147 0.0 0.0 0.00 0.00 0.00 87 999.4
20260505085328 16 121 1.6 1.6 0.00 0.00 0.00 88 999.5
20260505084825 16 126 1.6 1.6 0.00 0.00 0.00 88 999.7
20260505084323 15 132 0.0 0.0 0.00 0.00 0.00 88 999.6
20260505083820 15 138 1.6 1.6 0.00 0.00 0.00 89 999.4
20260505083318 15 150 0.0 1.6 0.00 0.00 0.00 88 999.4
20260505082814 15 129 0.0 0.0 0.00 0.00 0.00 88 999.5
20260505082311 16 133 0.0 0.0 0.00 0.00 0.00 88 999.5
20260505081807 16 132 0.0 0.0 0.00 0.00 0.00 87 999.4
20260505081304 16 128 0.0 0.0 0.00 0.00 0.00 86 999.2
20260505080800 16 132 0.0 0.0 0.00 0.00 0.00 86 999.2
20260505080256 16 135 0.0 1.6 0.00 0.00 0.00 85 999.3
20260505075752 16 151 1.6 1.6 0.00 0.00 0.00 85 999.3
20260505075250 16 132 0.0 0.0 0.00 0.00 0.00 84 999.4
20260505074747 16 134 0.0 0.0 0.00 0.00 0.00 83 999.4
20260505074244 16 127 0.0 0.0 0.00 0.00 0.00 82 999.4
20260505073741 17 128 0.0 0.0 0.00 0.00 0.00 81 999.7
20260505073239 17 121 0.0 0.0 0.00 0.00 0.00 80 999.4
20260505072735 17 120 0.0 0.0 0.00 0.00 0.00 80 999.8
20260505072231 17 119 0.0 0.0 0.00 0.00 0.00 79 999.5
20260505071727 17 88 3.2 3.2 0.00 0.00 0.00 79 1000.0
20260505071224 17 24 3.2 3.2 0.00 0.00 0.00 78 999.7
20260505070716 17 122 0.0 0.0 0.00 0.00 0.00 78 999.7
20260505070212 17 122 0.0 1.6 0.00 0.00 0.00 77 999.6
20260505065708 17 140 0.0 0.0 0.00 0.00 0.00 77 999.7
20260505065205 17 137 0.0 1.6 0.00 0.00 0.00 76 999.9
20260505064702 17 326 3.2 3.2 0.00 0.00 0.00 77 999.8
20260505064200 17 125 3.2 3.2 0.00 0.00 0.00 77 999.6
20260505063657 17 130 1.6 1.6 0.00 0.00 0.00 77 999.4
20260505063153 17 47 1.6 4.8 0.00 0.00 0.00 77 999.3
20260505062649 17 146 1.6 1.6 0.00 0.00 0.00 76 999.3
20260505062147 17 122 0.0 0.0 0.00 0.00 0.00 76 999.4
20260505061644 17 319 6.4 8.0 0.00 0.00 0.00 76 999.3
20260505061142 17 117 1.6 1.6 0.00 0.00 0.00 76 999.2
20260505060640 17 215 1.6 1.6 0.00 0.00 0.00 76 999.5
20260505060136 17 318 6.4 8.0 0.00 0.00 0.00 76 999.5
20260505055631 17 120 1.6 3.2 0.00 0.00 0.00 76 999.4
20260505055128 17 164 3.2 3.2 0.00 0.00 0.00 76 999.4
20260505054625 17 297 8.0 9.7 0.00 0.00 0.00 76 999.4
20260505054123 17 230 4.8 4.8 0.00 0.00 0.00 76 999.8
20260505053620 17 196 6.4 9.7 0.00 0.00 0.00 76 999.8
20260505053116 17 42 6.4 8.0 0.00 0.00 0.00 76 999.5
20260505052613 17 239 4.8 4.8 0.00 0.00 0.00 76 999.3
20260505052111 17 307 4.8 8.0 0.00 0.00 0.00 76 999.3
20260505051608 17 177 3.2 3.2 0.00 0.00 0.00 75 999.5
20260505051106 17 308 4.8 4.8 0.00 0.00 0.00 76 999.6
20260505050604 17 71 4.8 4.8 0.00 0.00 0.00 75 1000.0
20260505041531 18 280 1.6 1.6 0.00 0.00 0.00 74 1000.3
20260505041029 18 39 1.6 3.2 0.00 0.00 0.00 73 1000.0
20260505040526 18 135 1.6 3.2 0.00 0.00 0.00 73 1000.3
20260505040023 18 125 1.6 1.6 0.00 0.00 0.00 73 1000.6
20260505035519 18 298 4.8 4.8 0.00 0.00 0.00 73 1000.7
20260505035016 18 327 4.8 4.8 0.00 0.00 0.00 72 1000.7
20260505034512 18 117 3.2 4.8 0.00 0.00 0.00 73 1000.7
20260505034010 18 6 3.2 8.0 0.00 0.00 0.00 72 1000.7
20260505033506 18 89 1.6 1.6 0.00 0.00 0.00 72 1001.0
20260505033005 18 121 3.2 3.2 0.00 0.00 0.00 72 1000.9
20260505032502 18 290 1.6 3.2 0.00 0.00 0.00 71 1001.1
20260505031958 19 23 3.2 3.2 0.00 0.00 0.00 71 1000.9
20260505031455 19 156 1.6 1.6 0.00 0.00 0.00 72 1000.9
20260505030953 19 88 1.6 1.6 0.00 0.00 0.00 71 1000.9
20260505030449 19 133 1.6 1.6 0.00 0.00 0.00 70 1000.6
20260505025944 19 49 1.6 3.2 0.00 0.00 0.00 70 1000.6
20260505025441 20 37 4.8 8.0 0.00 0.00 0.00 70 1000.5
20260505024939 20 346 3.2 3.2 0.00 0.00 0.00 69 1000.4
20260505024436 20 102 1.6 3.2 0.00 0.00 0.00 68 1000.3
20260505023933 20 197 3.2 4.8 0.00 0.00 0.00 68 1000.5
20260505023430 20 96 0.0 0.0 0.00 0.00 0.00 68 1000.4
20260505022928 20 124 0.0 1.6 0.00 0.00 0.00 68 1000.5
20260505022426 20 128 1.6 1.6 0.00 0.00 0.00 67 1000.2
20260505021922 20 0 1.6 3.2 0.00 0.00 0.00 67 1000.2
20260505021418 20 150 3.2 3.2 0.00 0.00 0.00 66 999.9
20260505020914 20 123 1.6 1.6 0.00 0.00 0.00 65 999.8
20260505020410 20 89 3.2 3.2 0.00 0.00 0.00 65 999.8
20260505015907 20 91 1.6 3.2 0.00 0.00 0.00 64 999.7
20260505015404 21 124 0.0 0.0 0.00 0.00 0.00 63 999.8
20260505014901 21 89 1.6 1.6 0.00 0.00 0.00 63 999.5
20260505014358 21 146 3.2 4.8 0.00 0.00 0.00 63 999.4
20260505013855 21 24 4.8 4.8 0.00 0.00 0.00 63 999.4
20260505013352 21 122 1.6 1.6 0.00 0.00 0.00 62 999.5
20260505012850 21 111 0.0 0.0 0.00 0.00 0.00 62 999.5
20260505012348 21 115 1.6 1.6 0.00 0.00 0.00 61 999.4
20260505011844 21 262 3.2 4.8 0.00 0.00 0.00 60 999.3
20260505011341 21 82 1.6 3.2 0.00 0.00 0.00 60 999.3
20260505010837 21 107 1.6 1.6 0.00 0.00 0.00 60 999.1
20260505010333 22 110 1.6 3.2 0.00 0.00 0.00 60 999.1
20260505005829 22 149 1.6 1.6 0.00 0.00 0.00 60 999.2
20260505005326 22 1 6.4 8.0 0.00 0.00 0.00 60 998.9
20260505004824 22 117 1.6 3.2 0.00 0.00 0.00 60 998.7
20260505004320 22 129 1.6 3.2 0.00 0.00 0.00 58 998.8
20260505003817 22 127 1.6 1.6 0.00 0.00 0.00 58 998.9
20260505003314 22 127 1.6 1.6 0.00 0.00 0.00 56 998.9
20260505002810 23 113 0.0 1.6 0.00 0.00 0.00 53 999.1
20260505002308 23 109 1.6 1.6 0.00 0.00 0.00 51 998.7
20260505001806 24 98 1.6 1.6 0.00 0.00 0.00 49 998.9
20260505001302 24 134 1.6 1.6 0.00 0.00 0.00 50 999.1
20260505000800 24 195 4.8 8.0 0.00 0.00 0.00 49 999.1
20260505000257 24 224 4.8 4.8 0.00 0.00 0.00 49 999.1
20260504235754 25 339 1.6 3.2 0.00 0.00 0.00 49 998.9
20260504235245 25 172 8.0 12.9 0.00 0.00 0.00 48 999.1
20260504234742 25 181 3.2 3.2 0.00 0.00 0.00 50 998.9
20260504234239 25 308 4.8 8.0 0.00 0.00 0.00 48 999.0
20260504233735 26 305 6.4 8.0 0.00 0.00 0.00 47 998.8
20260504233231 25 176 3.2 3.2 0.00 0.00 0.00 49 998.9
20260504232729 26 140 4.8 8.0 0.00 0.00 0.00 46 998.9
20260504232226 26 154 4.8 4.8 0.00 0.00 0.00 49 999.0
20260504231722 26 295 6.4 8.0 0.00 0.00 0.00 47 999.0
20260504231218 26 13 3.2 8.0 0.00 0.00 0.00 48 998.9
20260504230714 26 76 1.6 1.6 0.00 0.00 0.00 47 999.0
20260504230213 26 209 3.2 3.2 0.00 0.00 0.00 48 998.9
20260504225711 27 343 4.8 4.8 0.00 0.00 0.00 45 999.0
20260504225207 26 152 6.4 9.7 0.00 0.00 0.00 47 999.0
20260504224705 27 301 8.0 16.1 0.00 0.00 0.00 47 999.1
20260504224202 27 98 4.8 8.0 0.00 0.00 0.00 48 998.8
20260504223658 27 202 4.8 8.0 0.00 0.00 0.00 47 998.9
20260504223154 26 211 1.6 4.8 0.00 0.00 0.00 47 999.1
20260504222651 26 137 1.6 1.6 0.00 0.00 0.00 44 998.9
20260504222147 26 249 4.8 8.0 0.00 0.00 0.00 47 999.2
20260504221645 26 32 6.4 9.7 0.00 0.00 0.00 48 999.1
20260504221142 26 120 1.6 3.2 0.00 0.00 0.00 46 999.0
20260504220638 26 332 4.8 4.8 0.00 0.00 0.00 45 999.1
20260504220136 26 208 6.4 9.7 0.00 0.00 0.00 44 999.2
20260504215632 27 295 12.9 12.9 0.00 0.00 0.00 44 999.1
20260504215130 27 161 6.4 11.3 0.00 0.00 0.00 44 999.3
20260504214626 27 199 4.8 4.8 0.00 0.00 0.00 44 999.3
20260504214122 27 181 6.4 8.0 0.00 0.00 0.00 44 999.4
20260504213619 27 311 9.7 12.9 0.00 0.00 0.00 44 999.4
20260504213115 27 38 3.2 4.8 0.00 0.00 0.00 45 999.5
20260504212612 27 76 4.8 8.0 0.00 0.00 0.00 43 999.6
20260504212109 27 275 3.2 4.8 0.00 0.00 0.00 44 999.4
20260504211606 27 139 1.6 3.2 0.00 0.00 0.00 44 999.5
20260504211102 26 224 11.3 12.9 0.00 0.00 0.00 44 999.6
20260504210600 27 207 11.3 16.1 0.00 0.00 0.00 44 999.5
20260504210056 27 165 8.0 11.3 0.00 0.00 0.00 46 999.6
20260504205554 27 121 4.8 8.0 0.00 0.00 0.00 45 999.5
20260504205052 27 196 3.2 4.8 0.00 0.00 0.00 49 999.8
20260504204549 27 188 4.8 8.0 0.00 0.00 0.00 44 999.7
20260504204049 27 179 11.3 16.1 0.00 0.00 0.00 43 999.8
20260504203546 27 138 11.3 16.1 0.00 0.00 0.00 43 999.8
20260504203044 27 251 12.9 14.5 0.00 0.00 0.00 44 999.6
20260504202539 27 5 4.8 9.7 0.00 0.00 0.00 49 999.9
20260504202036 27 132 3.2 4.8 0.00 0.00 0.00 45 1000.1
20260504201533 27 351 1.6 3.2 0.00 0.00 0.00 48 1000.0
20260504201031 27 154 3.2 3.2 0.00 0.00 0.00 45 1000.1
20260504200526 27 146 1.6 3.2 0.00 0.00 0.00 46 1000.1
20260504200024 27 290 9.7 9.7 0.00 0.00 0.00 45 1000.2
20260504195520 27 234 11.3 14.5 0.00 0.00 0.00 44 1000.1
20260504195017 27 307 3.2 4.8 0.00 0.00 0.00 46 1000.1
20260504194513 27 198 12.9 17.7 0.00 0.00 0.00 45 1000.5
20260504194008 26 304 16.1 27.4 0.00 0.00 0.00 42 1000.4
20260504193506 26 177 8.0 11.3 0.00 0.00 0.00 44 1000.4
20260504193004 26 203 4.8 9.7 0.00 0.00 0.00 47 1000.5
20260504192502 26 6 8.0 9.7 0.00 0.00 0.00 44 1000.3
20260504192000 26 325 11.3 16.1 0.00 0.00 0.00 43 1000.4
20260504191458 26 196 4.8 8.0 0.00 0.00 0.00 49 1000.1
20260504190953 26 178 8.0 9.7 0.00 0.00 0.00 47 1000.4
20260504190449 26 339 6.4 11.3 0.00 0.00 0.00 48 1000.4
20260504185946 26 144 4.8 8.0 0.00 0.00 0.00 49 1000.5
20260504185443 26 132 3.2 3.2 0.00 0.00 0.00 49 1000.6
20260504184939 26 14 9.7 14.5 0.00 0.00 0.00 46 1000.7
20260504184435 26 214 6.4 9.7 0.00 0.00 0.00 45 1000.7
20260504183931 26 207 3.2 3.2 0.00 0.00 0.00 51 1000.7
20260504183428 26 148 3.2 4.8 0.00 0.00 0.00 47 1000.7
20260504182926 26 251 9.7 11.3 0.00 0.00 0.00 48 1000.9
20260504182423 26 305 11.3 16.1 0.00 0.00 0.00 47 1000.8
20260504181920 26 267 8.0 9.7 0.00 0.00 0.00 50 1000.8
20260504181417 26 201 4.8 8.0 0.00 0.00 0.00 47 1000.7
20260504180916 26 14 4.8 9.7 0.00 0.00 0.00 53 1000.7
20260504180414 25 351 8.0 11.3 0.00 0.00 0.00 50 1000.8
20260504175912 25 283 4.8 8.0 0.00 0.00 0.00 52 1000.9
20260504175408 25 154 6.4 11.3 0.00 0.00 0.00 52 1000.9
20260504174906 25 277 8.0 9.7 0.00 0.00 0.00 50 1000.6
20260504174404 25 320 4.8 8.0 0.00 0.00 0.00 52 1000.7
20260504173901 25 167 1.6 1.6 0.00 0.00 0.00 53 1000.9
20260504173357 25 100 4.8 4.8 0.00 0.00 0.00 50 1000.8
20260504172854 25 158 1.6 3.2 0.00 0.00 0.00 51 1001.1
20260504172351 25 200 4.8 8.0 0.00 0.00 0.00 55 1000.7
20260504171846 25 203 6.4 8.0 0.00 0.00 0.00 51 1000.9
20260504171344 25 62 3.2 4.8 0.00 0.00 0.00 53 1001.1
20260504170841 25 55 1.6 3.2 0.00 0.00 0.00 53 1001.2
20260504170338 24 219 6.4 9.7 0.00 0.00 0.00 55 1000.8
20260504160256 23 189 11.3 12.9 0.00 0.00 0.00 53 1002.0